Forside
METAR-TAF:

METAR-TAF

Lufthavne :

Ashland, Wisconsin, USA

Breddekreds: 46-32-59N, længdekreds: 090-55-06W, højde: 251 m

Aktuelle vejr

Denne rapport blev lavet for 1 time og 6 minutter siden, kl. 15:53 UTC
Vind 9 kt fra vestsydvest
Temperatur 24°C
Fugtighed 61%
Tryk 1018 hPa
Sigt: 8.0 km
skyfri
tåge/dis

METAR: KASX 031553Z AUTO 24009KT 5SM HZ CLR 24/16 A3006 RMK AO2 SLP177 T02390156

Tid: 11:59 (16:59 UTC)


TAF: fraværende

Vejrobservationer og prognoser fra mere end 4000 lufthavne (METAR og TAF).

De gule og røde prikker repræsenterer de meteorologiske stationer.

Flyt musen over at se navnet på stationen.

Så klik over at se vejr observationer og prognoser.

At skifte det kort: Klik på de grønne knapper med et sort kors for at zoome ind; på den grønne knap med en bindestreg for at zoome ud; eller på de grønne pile for tilstødende kort.


METAR-TAF: